Hourly Weather Roundup
Issued by NWS Central Illinois

Home | Current Version | Previous Version | Text Only | Print | Product List | Glossary On
Versions: 1 2 3 4 5 6 7 8 9 10 11 12 13 14 15 16 17 18 19 20 21 22 23 24 25 26 27 28 29 30 31 32 33 34 35 36 37 38 39 40 41 42 43 44 45 46 47 48 49 50
000
NZUS43 KILX 241910
HWRILX

AREA WEATHER ROUNDUP
NATIONAL WEATHER SERVICE, LINCOLN IL
200 PM CDT THU JUL 24 2014


CITY           SKY/WX    TMP DP  RH WIND       PRES   REMARKS
BLOOMINGTON    SUNNY     74  53  47 NE10      30.15F
CHAMPAIGN      MOSUNNY   75  56  51 NE8       30.13F
DECATUR        MOSUNNY   76  56  49 VRB7      30.13F
FLORA          SUNNY     74  57  53 NE8       30.10S
GALESBURG      MOSUNNY   81  56  42 CALM      30.16F HX  81
JACKSONVILLE   MOSUNNY   78  56  46 N9        30.15F
LACON          MOSUNNY   75  53  46 NE3       30.13F
LAWRENCEVILLE  PTSUNNY   77  59  53 NE13      30.08F
LITCHFIELD     SUNNY     76  56  49 N9        30.12F
$$


CITY           SKY/WX    TMP DP  RH WIND       PRES   REMARKS
LINCOLN        SUNNY     78  53  42 NE10      30.11F
MACOMB         MOSUNNY   75  55  50 SE3       30.18F
MATTOON        SUNNY     76  56  49 NE10      30.11F
MT CARMEL AP   MOSUNNY   81  57  44 N9G17     30.08F HX  81
OLNEY-NOBLE AP MOSUNNY   75  61  60 N7        30.09F
PARIS          MOSUNNY   76  60  58 NE8       30.12S
PEORIA         SUNNY     80  53  39 NE12G17   30.15S HX  80
PONTIAC        MOSUNNY   75  55  50 E8        30.14S
RANTOUL        MOSUNNY   76  52  43 NE7       30.13F
ROBINSON       MOSUNNY   78  59  53 NE9       30.10F
SPRINGFIELD    SUNNY     78  53  41 E9        30.14F
TAYLORVILLE    MOSUNNY   73  55  53 N8        30.13F
$$

...REGIONAL REPORTS...


CITY           SKY/WX    TMP DP  RH WIND       PRES   REMARKS
CHICAGO O`HARE MOSUNNY   74  46  36 E12       30.14F
KANKAKEE       MOSUNNY   74  55  50 NE8       30.14S
MOLINE         MOSUNNY   78  53  41 VRB5      30.13F
MOUNT VERNON   MOSUNNY   77  59  53 NE8       30.10F
PITTSFIELD     MOSUNNY   77  53  42 NE8       30.16F
QUINCY         MOSUNNY   77  55  46 E7        30.15F
ROCKFORD       MOSUNNY   75  50  41 E9        30.15F
$$


CITY           SKY/WX    TMP DP  RH WIND       PRES   REMARKS
BURLINGTON     MOSUNNY   76  55  48 CALM      30.15F
CEDAR RAPIDS   SUNNY     76  59  55 S7        30.11F
DES MOINES     CLOUDY    80  58  46 SE13      30.08F HX  80
KIRKSVILLE     CLOUDY    76  59  55 E5        30.15F
OTTUMWA        MOSUNNY   76  61  59 SE8       30.10F
ST LOUIS       PTSUNNY   81  54  39 N10G16    30.12F HX  81
$$


CITY           SKY/WX    TMP DP  RH WIND       PRES   REMARKS
TERRE HAUTE    MOSUNNY   76  57  51 N9        30.10F
EVANSVILLE     PTSUNNY   80  55  42 N14G20    30.07R HX  80
INDIANAPOLIS   PTSUNNY   74  52  46 N10G17    30.10S
LAFAYETTE      MOSUNNY   75  52  44 N9        30.11F
MADISON        PTSUNNY   75  51  43 CALM      30.13F
MILWAUKEE      MOSUNNY   69  48  47 E8        30.16F
$$





USA.gov is the U.S. government's official web portal to all federal, state and local government web resources and services.